Regional Weather Roundup
Issued by NWS Sioux Falls, SD

Home | Current Version | Previous Version | Text Only | Print | Product List | Glossary On
Versions: 1 2 3 4 5 6 7 8 9 10 11 12 13 14 15 16 17 18 19 20 21 22 23 24 25 26 27 28 29 30 31 32 33 34 35 36 37 38 39 40 41 42 43 44 45 46 47 48 49 50
000
ASUS43 KFSD 302002
RWRFSD

WEATHER ROUNDUP FOR SE SOUTH DAKOTA/SW MINNESOTA/NW IOWA
NATIONAL WEATHER SERVICE SIOUX FALLS SD
300 PM CDT MON MAY 30 2016

NOTE: "FAIR" INDICATES FEW OR NO CLOUDS BELOW 12,000 FEET WITH NO
SIGNIFICANT WEATHER AND OR OBSTRUCTIONS TO VISIBILITY.


SDZ038>040-050-052>070-302100-
SOUTHEAST SOUTH DAKOTA

CITY           SKY/WX    TMP DP  RH WIND       PRES   REMARKS
BROOKINGS      MOSUNNY   79  59  50 S14G21    29.89F
CHAMBERLAIN    NOT AVBL
HURON          MOSUNNY   79  61  53 S18G25    29.83F
MADISON        FAIR      77  57  50 S17G25    29.90F
MITCHELL       MOSUNNY   80  61  52 S15       29.85F
SIOUX FALLS    CLOUDY    79  60  52 S12       29.89F
WINNER         FAIR      82  55  39 S18G25    29.82F
YANKTON        CLOUDY    81  57  44 S10       29.86F
$$

MNZ071-072-080-081-089-090-097-098-302100-
SOUTHWEST MINNESOTA

CITY           SKY/WX    TMP DP  RH WIND       PRES   REMARKS
FAIRMONT       MOSUNNY   81  55  41 SE13G21   29.95F
JACKSON        MOSUNNY   81  52  36 S12G18    29.95F
LUVERNE        CLOUDY    79  52  38 S12       29.91F
MARSHALL       MOSUNNY   80  56  43 S20       29.90F
MONTEVIDEO     SUNNY     88  54  31 SW13      29.91F
PIPESTONE      MOSUNNY   81  57  44 S13       29.92F
REDWOOD FALLS  SUNNY     83  52  34 S20G28    29.92F
TRACY          MOSUNNY   81  56  43 S12G21    29.92F
WINDOM         SUNNY     81  54  39 CALM      29.94F
WORTHINGTON    CLOUDY    80  58  46 S15       29.93F
$$

IAZ001>003-012>014-020>022-031-032-NEZ013-014-SDZ071-302100-
NORTHWEST IOWA

CITY           SKY/WX    TMP DP  RH WIND       PRES   REMARKS
DENISON        CLOUDY    82  55  39 S13G22    29.91F
ESTHERVILLE    MOSUNNY   79  59  50 SE15      29.94F
SIOUX CITY     CLOUDY    83  56  39 S15       29.89F
SPENCER        MOSUNNY   84  55  36 SW9G16    29.92F
STORM LAKE       N/A     84  50  30 S14       29.93F
$$

ABBREVIATIONS USED IN REMARKS
   TC - TEMPERATURE IN CELSIUS
  WCI - WIND CHILL INDEX
   HX - HEAT INDEX
  VSB - VISIBILITY





USA.gov is the U.S. government's official web portal to all federal, state and local government web resources and services.